Location: ?
(35.4554°N, 139.3092°E)
Time: 20:55:50
(UTC+00:00)

Cosmos 2221 Rocket - Pass Details

Date: 21 April 2021
Orbit: 621 x 647 km, 82.5° (Epoch: 10 May)

Event Time Altitude Azimuth Distance (km) Brightness Sun altitude
Exits shadow 18:22:15 35° 280° (W) 1,027 4.3 -19.4°
Maximum altitude 18:22:18 35° 281° (WNW) 1,027 4.3 -19.4°
Drops below altitude 10° 18:26:27 10° 348° (NNW) 2,040 6.4 -18.7°
Sets 18:28:52 0° 357° (N) 2,957 7.4 -18.3°
